SU8PY HEOC-HEGN

Flight info

Callsign SU8PY
Flight time N/A
Altitude 6000
Route HEOC CVO L315 HGD
Aircraft TBM8/L-SDFGRWY/S

Departure

Time 2026-04-26 17:42
Airport October Airport (HEOC)

Arrival

Time N/A
Airport Hurghada International Airport (HEGN)
Time Latitude Longitude Altitude Speed Heading
2026-04-26 17:20 29.81240 30.82696 779 ft 0 kts 100°
2026-04-26 17:34 29.81239 30.82702 779 ft 4 kts 99°
2026-04-26 17:34 29.81200 30.82731 782 ft 11 kts 191°
2026-04-26 17:34 29.81136 30.82713 785 ft 8 kts 213°
2026-04-26 17:35 29.81133 30.82660 786 ft 7 kts 279°
2026-04-26 17:35 29.81143 30.82594 786 ft 10 kts 279°
2026-04-26 17:35 29.81139 30.82508 784 ft 12 kts 224°
2026-04-26 17:35 29.81048 30.82483 789 ft 15 kts 190°
2026-04-26 17:36 29.80939 30.82462 792 ft 17 kts 189°
2026-04-26 17:36 29.80822 30.82438 795 ft 17 kts 189°
2026-04-26 17:36 29.80733 30.82421 798 ft 7 kts 208°
2026-04-26 17:36 29.80721 30.82377 799 ft 7 kts 283°
2026-04-26 17:37 29.80724 30.82351 799 ft 0 kts 273°
2026-04-26 17:38 29.80724 30.82349 799 ft 2 kts 276°
2026-04-26 17:38 29.80729 30.82305 799 ft 9 kts 275°
2026-04-26 17:38 29.80735 30.82250 800 ft 4 kts 287°
2026-04-26 17:39 29.80765 30.82238 799 ft 0 kts 11°
2026-04-26 17:41 29.80824 30.82249 798 ft 29 kts
2026-04-26 17:41 29.81223 30.82330 783 ft 86 kts 10°
2026-04-26 17:41 29.81956 30.82493 831 ft 121 kts 11°
2026-04-26 17:42 29.82774 30.82712 1293 ft 118 kts
2026-04-26 17:42 29.83557 30.82823 1878 ft 108 kts 343°
2026-04-26 17:42 29.84161 30.82318 2235 ft 116 kts 296°
2026-04-26 17:42 29.84221 30.81420 2718 ft 118 kts 249°
2026-04-26 17:43 29.83663 30.80692 3148 ft 127 kts 217°
2026-04-26 17:43 29.82798 30.80444 3650 ft 134 kts 179°
2026-04-26 17:43 29.81966 30.80994 4022 ft 154 kts 127°
2026-04-26 17:43 29.81492 30.82141 4447 ft 157 kts 114°
2026-04-26 17:44 29.81073 30.83283 4974 ft 153 kts 114°
2026-04-26 17:44 29.80745 30.84410 5537 ft 147 kts 95°
2026-04-26 17:44 29.80997 30.85587 5772 ft 162 kts 54°
2026-04-26 17:44 29.81730 30.86628 6085 ft 169 kts 44°
2026-04-26 17:45 29.82509 30.87635 6539 ft 168 kts 44°
2026-04-26 17:45 29.83263 30.88687 6951 ft 171 kts 47°
2026-04-26 17:45 29.84019 30.89739 7394 ft 169 kts 41°
2026-04-26 17:45 29.84865 30.90713 7764 ft 175 kts 38°
2026-04-26 17:46 29.85628 30.91851 8143 ft 183 kts 56°
2026-04-26 17:46 29.86289 30.93114 8562 ft 185 kts 55°
2026-04-26 17:46 29.86944 30.94382 8972 ft 188 kts 57°
2026-04-26 17:46 29.87606 30.95698 9374 ft 191 kts 57°
2026-04-26 17:47 29.88277 30.97038 9777 ft 194 kts 57°
2026-04-26 17:47 29.88506 30.97493 9904 ft 195 kts 57°
2026-04-26 17:47 29.89725 30.99933 10025 ft 229 kts 58°
2026-04-26 17:47 29.90546 31.01584 10023 ft 245 kts 58°
2026-04-26 17:48 29.91420 31.03326 10022 ft 256 kts 58°
2026-04-26 17:48 29.92327 31.05128 10022 ft 263 kts 58°
2026-04-26 17:48 29.93253 31.06971 10020 ft 268 kts 58°
2026-04-26 17:48 29.94192 31.08844 10019 ft 271 kts 58°
2026-04-26 17:49 29.95141 31.10735 10016 ft 273 kts 58°
2026-04-26 17:49 29.95772 31.11993 10018 ft 274 kts 58°
2026-04-26 17:49 29.97038 31.14518 10224 ft 266 kts 58°
2026-04-26 17:49 29.97952 31.16331 10544 ft 256 kts 58°
2026-04-26 17:50 29.98540 31.17496 10771 ft 251 kts 58°
2026-04-26 17:50 29.99408 31.19224 11103 ft 247 kts 58°
2026-04-26 17:50 30.00260 31.20925 11439 ft 243 kts 58°
2026-04-26 17:51 30.02229 31.24851 11957 ft 253 kts 58°
2026-04-26 17:51 30.03129 31.26659 11960 ft 263 kts 58°
2026-04-26 17:51 30.03856 31.28623 11963 ft 272 kts 80°
2026-04-26 17:51 30.03739 31.30783 11960 ft 271 kts 112°
2026-04-26 17:52 30.02824 31.32641 11966 ft 268 kts 129°
2026-04-26 17:52 30.01848 31.34489 11972 ft 272 kts 126°
2026-04-26 17:52 30.00886 31.36380 11976 ft 274 kts 126°
2026-04-26 17:52 30.00246 31.37638 11974 ft 275 kts 126°
2026-04-26 17:53 29.98943 31.40188 11976 ft 276 kts 126°
2026-04-26 17:53 29.97979 31.42071 11973 ft 277 kts 126°
2026-04-26 17:53 29.96987 31.44013 11974 ft 278 kts 126°
2026-04-26 17:54 29.95355 31.47204 11974 ft 278 kts 126°
2026-04-26 17:54 29.94059 31.49744 11972 ft 277 kts 126°
2026-04-26 17:54 29.93728 31.50394 11971 ft 277 kts 126°
2026-04-26 17:54 29.92433 31.52937 11971 ft 277 kts 126°
2026-04-26 17:55 29.90734 31.55035 11969 ft 263 kts 155°
2026-04-26 17:55 29.89712 31.55779 11968 ft 263 kts 154°
2026-04-26 17:55 29.87753 31.57471 11972 ft 266 kts 149°
2026-04-26 17:55 29.86281 31.58760 11973 ft 265 kts 150°
2026-04-26 17:56 29.84812 31.60014 11976 ft 261 kts 151°
2026-04-26 17:56 29.82396 31.62106 11974 ft 258 kts 150°
2026-04-26 17:57 29.79547 31.64573 11974 ft 255 kts 150°
2026-04-26 17:57 29.78141 31.65786 11976 ft 255 kts 150°
2026-04-26 17:57 29.76722 31.67012 11981 ft 254 kts 150°
2026-04-26 17:57 29.75307 31.68236 11981 ft 254 kts 150°
2026-04-26 17:58 29.71066 31.71897 11983 ft 254 kts 150°
2026-04-26 17:59 29.68242 31.74333 11982 ft 253 kts 150°
2026-04-26 17:59 29.66832 31.75550 11990 ft 253 kts 151°
2026-04-26 17:59 29.65439 31.76750 11987 ft 253 kts 151°
2026-04-26 17:59 29.64029 31.77965 11993 ft 253 kts 151°
2026-04-26 18:00 29.62623 31.79177 11994 ft 253 kts 151°
2026-04-26 18:00 29.61673 31.79996 11992 ft 253 kts 151°
2026-04-26 18:00 29.61218 31.80388 11994 ft 253 kts 151°
2026-04-26 18:01 29.60742 31.80797 11990 ft 253 kts 151°
2026-04-26 18:01 29.59810 31.81599 11989 ft 253 kts 150°